Flag for U.S.A. Weather past 2 weeks in Grand Prairie, Texas, U.S.A.

Now
66 °F

Low clouds.


Feels Like: 66 °F
Forecast: 71 / 80 °F
Wind: 13 mph from North

Location: Grand Prairie Municipal Airport

Current Time: May 29, 2015 at 2:09:50 AM

Latest Report: May 29, 2015 at 1:35 AM


Visibility: 1 mi

Pressure: 29.96 "Hg

Humidity: 100%

Dew point: 66 °F

Location of Grand PrairieLocation

Historic Weather in Grand Prairie — Graph

°F

Grand Prairie temperature yesterday

Maximum temperature yesterday: 88 °F (at 1:50 PM)
Minimum temperature yesterday: 66 °F (at 11:55 PM)
Average temperature yesterday: 77 °F

Past Weeks' High & Low Weather Summary

 TemperatureHumidityPressure
High88 °F (May 18, 4:50 PM)100% (May 14, 12:15 AM)30.24 "Hg (May 14, 12:15 AM)
Low55 °F (May 21, 8:50 AM)37% (May 14, 2:50 PM)29.74 "Hg (May 16, 6:50 PM)
Average71 °F90%30.00 "Hg
* Reported May 14 12:15 AM — May 29 12:55 AM, Grand Prairie, Weather by CustomWeather, © 2015

Note: Actual official high and low records may vary slightly from our data, if they occured in-between our weather recording intervals... More about our weather records

Advertising

Grand Prairie weather history for previous 24 hours

 ConditionsComfort  
Time TempWeatherWind HumidityBarometerVisibility
12:55 AM
Fri, May 29
66 °FLow clouds.13 mph100%29.95 "Hg1 mi
12:35 AM66 °FMostly cloudy.8 mph100%29.97 "Hg1 mi
12:15 AM66 °FOvercast.18 mph100%29.94 "Hg5 mi
11:55 PM
Thu, May 28
66 °FMostly cloudy.16 mph100%29.97 "Hg1 mi
11:35 PM68 °FOvercast.18 mph91%29.98 "Hg1 mi
11:15 PM70 °FOvercast.13 mph81%29.97 "Hg10 mi
10:35 PM77 °FPartly cloudy.23 mph70%29.95 "Hg10 mi
10:15 PM79 °FPartly cloudy.7 mph79%29.94 "Hg10 mi
9:55 PM79 °FPassing clouds.3 mph78%29.96 "Hg10 mi
9:35 PM79 °FPassing clouds.6 mph76%29.95 "Hg10 mi
9:15 PM80 °FScattered clouds.3 mph75%29.94 "Hg10 mi
8:55 PM80 °FPartly sunny.6 mph74%29.95 "Hg10 mi
8:35 PM80 °FScattered clouds.8 mph73%29.96 "Hg10 mi
8:15 PM81 °FScattered clouds.6 mph72%29.94 "Hg10 mi
6:50 PM82 °FSunny.12 mph70%29.91 "Hg10 mi
5:50 PM88 °FScattered clouds.12 mph59%29.94 "Hg10 mi
4:50 PM84 °FPartly sunny.8 mph66%29.97 "Hg10 mi
3:50 PM88 °FSunny.10 mph59%29.98 "Hg10 mi
2:50 PM86 °FScattered clouds.10 mph59%30.00 "Hg10 mi
1:50 PM88 °FSunny.9 mph59%30.04 "Hg10 mi
12:50 PM82 °FScattered clouds.9 mph70%30.08 "Hg10 mi
11:50 AM82 °FScattered clouds.9 mph70%30.10 "Hg10 mi
10:50 AM81 °FScattered clouds.8 mph74%30.10 "Hg10 mi
9:50 AM77 °FSunny.12 mph83%30.10 "Hg10 mi
8:50 AM75 °FSunny.9 mph94%30.09 "Hg10 mi
7:50 AM73 °FSunny.7 mph100%30.07 "Hg10 mi
6:50 AM73 °FClear.7 mph100%30.05 "Hg10 mi
6:35 AM73 °FClear.5 mph100%30.05 "Hg10 mi
6:15 AM73 °FClear.6 mph100%30.05 "Hg10 mi
5:55 AM74 °FPassing clouds.8 mph100%30.05 "Hg10 mi
5:35 AM74 °FClear.9 mph100%30.05 "Hg10 mi
5:15 AM74 °FClear.6 mph100%30.05 "Hg10 mi
4:55 AM74 °FClear.7 mph100%30.05 "Hg10 mi
4:35 AM74 °FPassing clouds.7 mph100%30.06 "Hg10 mi
4:15 AM74 °FPassing clouds.6 mph100%30.06 "Hg10 mi
3:55 AM74 °FPassing clouds.6 mph95%30.05 "Hg10 mi
3:35 AM75 °FPassing clouds.6 mph94%30.05 "Hg10 mi
3:15 AM75 °FPassing clouds.7 mph93%30.04 "Hg10 mi
2:55 AM75 °FPartly cloudy.7 mph91%30.05 "Hg10 mi
2:35 AM75 °FPassing clouds.8 mph91%30.05 "Hg10 mi
2:15 AM75 °FPassing clouds.5 mph92%30.05 "Hg10 mi
Weather by CustomWeather, © 2015

See weather overviewHow to use our weather pages